TimeEST,TemperatureF,Dew PointF,Humidity,Sea Level PressureIn,VisibilityMPH,Wind Direction,Wind SpeedMPH,Gust SpeedMPH,PrecipitationIn,Events,Conditions,WindDirDegrees,DateUTC
12:53 AM,52.0,44.1,74,30.17,10.0,NNE,4.6,-,N/A,,Clear,20,2012-11-09 05:53:00
1:53 AM,51.1,45.0,80,30.16,10.0,NNE,6.9,-,N/A,,Clear,30,2012-11-09 06:53:00
2:53 AM,51.1,44.1,77,30.15,10.0,NE,5.8,-,N/A,,Clear,40,2012-11-09 07:53:00
3:53 AM,50.0,44.1,80,30.15,10.0,NE,5.8,-,N/A,,Clear,40,2012-11-09 08:53:00
4:53 AM,51.1,44.1,77,30.17,10.0,NNE,4.6,-,N/A,,Clear,20,2012-11-09 09:53:00
5:53 AM,51.1,43.0,74,30.18,10.0,NE,5.8,-,N/A,,Clear,50,2012-11-09 10:53:00
6:53 AM,51.1,42.1,71,30.20,10.0,NE,5.8,-,N/A,,Clear,40,2012-11-09 11:53:00
7:53 AM,55.9,43.0,62,30.22,10.0,NE,8.1,-,N/A,,Clear,40,2012-11-09 12:53:00
8:53 AM,61.0,44.1,54,30.23,10.0,NE,12.7,-,N/A,,Clear,40,2012-11-09 13:53:00
9:53 AM,66.0,46.0,48,30.24,10.0,NNE,12.7,-,N/A,,Clear,30,2012-11-09 14:53:00
10:53 AM,70.0,48.9,47,30.24,10.0,NE,8.1,-,N/A,,Clear,40,2012-11-09 15:53:00
11:53 AM,73.9,45.0,35,30.22,10.0,NNE,10.4,-,N/A,,Clear,30,2012-11-09 16:53:00
12:53 PM,75.0,45.0,34,30.19,10.0,ENE,9.2,-,N/A,,Clear,70,2012-11-09 17:53:00
1:53 PM,75.9,42.1,30,30.17,10.0,NNE,4.6,-,N/A,,Clear,30,2012-11-09 18:53:00
2:53 PM,75.9,43.0,31,30.16,10.0,ENE,6.9,-,N/A,,Clear,60,2012-11-09 19:53:00
3:53 PM,75.9,46.0,35,30.15,10.0,NE,10.4,16.1,N/A,,Clear,50,2012-11-09 20:53:00
4:53 PM,73.0,48.9,42,30.15,10.0,ENE,13.8,-,N/A,,Scattered Clouds,70,2012-11-09 21:53:00
5:53 PM,69.1,50.0,51,30.16,10.0,ENE,5.8,-,N/A,,Clear,60,2012-11-09 22:53:00
6:53 PM,66.0,51.1,59,30.18,10.0,Calm,Calm,-,N/A,,Clear,0,2012-11-09 23:53:00
7:53 PM,64.0,52.0,65,30.20,10.0,East,3.5,-,N/A,,Clear,80,2012-11-10 00:53:00
8:53 PM,63.0,53.1,70,30.22,10.0,ENE,4.6,-,N/A,,Clear,70,2012-11-10 01:53:00
9:53 PM,62.1,52.0,70,30.23,10.0,ENE,4.6,-,N/A,,Clear,70,2012-11-10 02:53:00
10:53 PM,60.1,52.0,75,30.23,10.0,ENE,5.8,-,N/A,,Clear,60,2012-11-10 03:53:00
11:53 PM,60.1,51.1,72,30.22,10.0,ENE,5.8,-,N/A,,Scattered Clouds,60,2012-11-10 04:53:00